GFSNE_prec_kuchsnow_177.txt.gz
Snowfall_Accumulation
0.0 0.0 0.0 0.0 0.0 0.0 0.0 0.0 0.0 0.0 0.0 0.0 0.0 0.0 0.0 0.0 0.0 0.0 0.0 0.0 0.0 0.0 0.0 0.0 0.0 0.0 0.0 0.0 0.0 0.0 0.0 0.0 0.0 0.0 0.0 0.0 0.0 0.0
0.0 0.0 0.0 0.0 0.0 0.0 0.0 0.0 0.0 0.0 0.0 0.0 0.0 0.0 0.0 0.0 0.0 0.0 0.0 0.0 0.0 0.0 0.0 0.0 0.0 0.0 0.0 0.0 0.0 0.0 0.0 0.0 0.0 0.0 0.0 0.0 0.0 0.0
0.0 0.0 0.0 0.0 0.0 0.0 0.0 0.0 0.0 0.0 0.0 0.1 0.0 0.0 0.0 0.0 0.0 0.0 0.0 0.0 0.0 0.0 0.0 0.0 0.0 0.0 0.0 0.0 0.0 0.0 0.0 0.0 0.0 0.0 0.0 0.0 0.0 0.0
0.0 0.0 0.0 0.0 0.0 0.0 0.0 0.0 0.0 0.0 0.0 0.1 0.0 0.3 0.4 0.1 0.2 0.0 0.0 0.0 0.0 0.0 0.0 0.0 0.0 0.0 0.0 0.0 0.0 0.0 0.0 0.0 0.0 0.0 0.0 0.0 0.0 0.0
0.0 0.0 0.0 0.0 0.0 0.0 0.1 0.0 0.4 0.3 0.2 0.1 0.3 0.8 1.3 0.9 2.0 1.6 1.1 0.0 0.0 0.0 0.0 0.0 0.0 0.0 0.0 0.0 0.0 0.0 0.0 0.0 0.0 0.0 0.0 0.0 0.0 0.0
0.0 0.0 0.0 0.3 0.4 0.0 0.9 1.0 0.7 1.0 0.5 0.7 0.3 1.0 0.8 0.5 0.3 0.4 0.4 0.2 0.0 0.0 0.0 0.0 0.0 0.0 0.0 0.0 0.0 0.0 0.0 0.0 0.0 0.0 0.0 0.0 0.0 0.0
0.0 0.2 0.1 0.0 0.8 1.9 1.5 1.0 1.1 0.8 0.9 1.0 0.9 0.3 0.3 0.3 0.3 0.2 0.1 0.0 0.0 0.0 0.0 0.0 0.0 0.0 0.0 0.0 0.0 0.0 0.0 0.0 0.0 0.0 0.0 0.0 0.0 0.0
0.0 1.3 1.2 1.7 0.6 0.0 0.0 0.0 0.0 0.8 1.1 0.9 0.4 0.0 0.0 0.0 0.0 0.0 0.2 0.4 1.0 0.0 0.1 0.0 0.0 0.1 0.0 0.0 0.0 0.0 0.0 0.0 0.0 0.0 0.0 0.0 0.0 0.0
1.7 1.5 0.4 0.5 0.4 0.5 0.1 0.0 0.2 0.0 0.0 0.1 0.0 0.0 0.0 0.0 0.4 0.5 0.9 1.6 0.3 0.0 0.1 0.2 0.0 0.0 0.0 0.0 0.0 0.0 0.0 0.0 0.0 0.0 0.0 0.0 0.0 0.0
1.1 0.7 0.3 0.0 0.0 0.1 0.1 0.4 0.0 0.0 0.0 0.0 0.0 0.0 0.1 0.1 0.3 0.5 1.0 0.9 0.2 0.0 0.0 0.6 0.0 0.0 0.0 0.0 0.0 0.0 0.0 0.0 0.0 0.0 0.0 0.0 0.0 0.0
0.3 0.0 0.0 0.0 0.0 0.0 0.1 0.1 0.0 0.0 0.0 0.0 0.0 0.0 0.0 0.0 0.0 0.2 0.9 1.4 0.9 0.0 0.0 0.2 0.0 0.0 0.0 0.0 0.0 0.0 0.0 0.0 0.0 0.0 0.0 0.0 0.0 0.0
0.1 0.0 0.0 0.0 0.0 0.0 0.1 0.1 0.4 0.0 0.2 0.1 0.0 0.0 0.0 0.0 0.0 0.0 0.2 3.3 2.2 2.1 0.0 1.7 0.2 0.7 3.6 0.0 0.0 0.0 0.0 0.0 0.0 0.0 0.0 0.0 0.0 0.0
0.0 0.0 0.0 0.0 0.0 0.0 0.0 0.1 0.3 0.1 0.1 0.1 0.0 0.0 0.0 0.0 0.0 0.0 0.0 1.6 6.2 4.8 0.0 4.4 7.0 1.2 5.9 1.6 0.0 0.0 0.0 0.0 0.0 0.0 0.0 0.0 0.1 0.1
0.0 0.0 0.0 0.1 0.0 0.0 0.0 0.0 0.0 0.0 0.2 0.1 0.1 0.0 0.0 0.0 0.0 0.1 0.1 0.1 0.2 2.0 0.3 0.6 13.7 4.7 9.2 7.3 1.3 0.0 0.3 0.3 0.5 0.8 0.6 0.0 0.0 0.0
0.0 0.0 0.0 0.0 0.1 0.0 0.0 0.0 0.0 0.0 0.1 0.4 0.3 0.1 0.0 0.0 0.0 0.2 0.1 0.7 0.6 0.0 0.0 0.1 3.3 4.7 9.6 11.2 5.4 1.2 0.9 0.3 0.8 0.9 1.1 1.6 1.5 0.4
0.0 0.0 0.2 0.1 0.0 0.0 0.0 0.0 0.0 0.0 0.1 0.8 0.7 0.1 0.1 0.5 1.3 1.2 2.0 1.5 3.4 1.7 1.2 2.0 2.3 4.4 10.8 4.6 5.5 4.4 0.8 2.7 0.9 1.2 1.9 1.3 1.2 1.4
0.2 0.3 0.1 0.0 0.0 0.0 0.0 0.0 0.1 0.1 0.6 0.2 1.2 1.6 1.3 1.4 1.5 1.2 2.5 3.2 6.8 3.8 4.3 2.6 2.3 2.8 2.8 4.4 8.9 1.6 1.6 1.7 1.1 2.2 2.6 2.1 1.0 1.9
0.5 0.7 0.7 0.2 0.3 0.3 0.2 0.3 0.3 0.5 0.6 2.1 2.8 2.7 3.9 3.9 3.2 4.4 4.5 5.9 6.9 3.2 5.2 5.4 6.2 9.3 8.2 6.4 1.2 5.0 4.0 1.9 2.0 1.5 2.1 5.7 3.0 0.8
0.7 0.6 0.5 0.5 0.7 0.4 0.8 1.2 1.6 0.6 1.4 3.6 5.2 5.4 6.7 5.7 6.3 6.2 4.2 5.2 5.8 3.6 4.9 6.2 9.2 14.2 18.9 8.6 2.8 1.4 6.9 5.9 3.6 3.6 2.7 3.7 4.4 1.9
0.2 0.2 0.3 0.2 0.9 1.6 1.5 2.5 2.1 2.6 3.6 4.0 4.9 5.2 7.5 9.7 8.3 6.7 5.0 7.6 7.7 4.7 4.8 6.0 6.1 9.3 20.0 13.2 9.7 1.9 2.2 6.4 8.7 6.4 3.3 2.2 2.1 0.1
0.2 0.4 0.3 0.9 1.6 2.3 3.0 4.3 4.3 5.0 5.3 7.2 5.8 5.6 5.7 10.4 9.0 4.8 6.2 3.3 6.1 6.9 8.4 3.5 1.7 1.9 7.9 14.5 18.4 6.8 5.1 2.9 2.5 9.8 7.9 7.9 3.7 2.8
0.5 0.7 0.7 1.6 2.0 3.6 4.5 5.0 5.5 4.2 4.8 4.4 4.0 4.7 5.6 8.8 10.6 8.1 6.6 8.9 5.1 3.7 4.2 2.9 4.2 5.7 8.6 14.0 10.4 4.7 3.9 3.0 3.2 1.3 1.2 6.4 16.1 16.3
1.6 2.0 1.5 2.6 3.0 4.8 5.3 6.1 5.0 3.5 3.4 5.0 5.0 5.0 6.5 10.1 5.5 6.5 6.8 6.6 6.5 7.9 5.6 6.4 5.1 4.6 6.5 7.5 8.5 7.7 5.2 4.0 3.1 3.6 3.6 1.3 1.3 0.8

GFSNE_prec_kuchsnow_183.txt.gz
Snowfall_Accumulation
0.0 0.0 0.0 0.0 0.0 0.0 0.0 0.0 0.0 0.0 0.0 0.0 0.0 0.0 0.0 0.0 0.0 0.0 0.0 0.0 0.0 0.0 0.0 0.0 0.0 0.0 0.0 0.0 0.0 0.0 0.0 0.0 0.0 0.0 0.0 0.0 0.0 0.0
0.0 0.0 0.0 0.0 0.0 0.0 0.0 0.0 0.0 0.0 0.0 0.0 0.0 0.0 0.0 0.0 0.0 0.0 0.0 0.0 0.0 0.0 0.0 0.0 0.0 0.0 0.0 0.0 0.0 0.0 0.0 0.0 0.0 0.0 0.0 0.0 0.0 0.0
0.0 0.0 0.0 0.0 0.0 0.0 0.0 0.0 0.0 0.0 0.0 0.1 0.0 0.0 0.0 0.0 0.0 0.0 0.0 0.0 0.0 0.0 0.0 0.0 0.0 0.0 0.0 0.0 0.0 0.0 0.0 0.0 0.0 0.0 0.0 0.0 0.0 0.0
0.0 0.0 0.0 0.0 0.0 0.0 0.0 0.0 0.0 0.0 0.0 0.1 0.0 0.3 0.4 0.1 0.2 0.0 0.0 0.0 0.0 0.0 0.0 0.0 0.0 0.0 0.0 0.0 0.0 0.0 0.0 0.0 0.0 0.0 0.0 0.0 0.0 0.0
0.0 0.0 0.0 0.0 0.0 0.0 0.1 0.0 0.4 0.3 0.2 0.1 0.3 0.8 1.3 0.9 2.0 1.6 1.1 0.0 0.0 0.0 0.0 0.0 0.0 0.0 0.0 0.0 0.0 0.0 0.0 0.0 0.0 0.0 0.0 0.0 0.0 0.0
0.0 0.0 0.0 0.3 0.4 0.0 0.9 1.0 0.7 1.0 0.5 0.7 0.3 1.0 0.8 0.5 0.3 0.4 0.4 0.2 0.0 0.0 0.0 0.0 0.0 0.0 0.0 0.0 0.0 0.0 0.0 0.0 0.0 0.0 0.0 0.0 0.0 0.0
0.0 0.2 0.1 0.0 0.8 1.9 1.5 1.0 1.1 0.8 0.9 1.0 0.9 0.3 0.3 0.3 0.3 0.2 0.1 0.0 0.0 0.0 0.0 0.0 0.0 0.0 0.0 0.0 0.0 0.0 0.0 0.0 0.0 0.0 0.0 0.0 0.0 0.0
0.0 1.3 1.2 1.7 0.6 0.0 0.0 0.0 0.0 0.8 1.1 0.9 0.4 0.0 0.0 0.0 0.0 0.0 0.2 0.4 1.0 0.0 0.1 0.0 0.0 0.1 0.0 0.0 0.0 0.0 0.0 0.0 0.0 0.0 0.0 0.0 0.0 0.0
1.7 1.5 0.4 0.5 0.4 0.5 0.1 0.0 0.2 0.0 0.0 0.1 0.0 0.0 0.0 0.0 0.4 0.5 0.9 1.6 0.3 0.0 0.1 0.2 0.0 0.0 0.0 0.0 0.0 0.0 0.0 0.0 0.0 0.0 0.0 0.0 0.0 0.0
1.1 0.7 0.3 0.0 0.0 0.1 0.1 0.4 0.0 0.0 0.0 0.0 0.0 0.0 0.1 0.1 0.3 0.5 1.0 0.9 0.2 0.0 0.0 0.6 0.0 0.0 0.0 0.0 0.0 0.0 0.0 0.0 0.0 0.0 0.0 0.0 0.0 0.0
0.3 0.0 0.0 0.0 0.0 0.0 0.1 0.1 0.0 0.0 0.0 0.0 0.0 0.0 0.0 0.0 0.0 0.2 0.9 1.5 0.9 0.0 0.0 0.2 0.0 0.0 0.0 0.0 0.0 0.0 0.0 0.0 0.0 0.0 0.0 0.0 0.0 0.0
0.1 0.0 0.0 0.0 0.0 0.0 0.1 0.1 0.4 0.0 0.2 0.1 0.0 0.0 0.0 0.0 0.0 0.0 0.2 3.5 2.4 2.1 0.0 1.9 0.2 0.7 3.8 0.0 0.0 0.0 0.0 0.0 0.0 0.0 0.0 0.0 0.0 0.0
0.0 0.0 0.0 0.0 0.0 0.0 0.0 0.1 0.3 0.1 0.1 0.1 0.0 0.0 0.0 0.0 0.0 0.0 0.0 1.7 6.5 5.0 0.0 4.5 7.2 1.2 6.4 1.7 0.0 0.0 0.0 0.0 0.0 0.0 0.0 0.0 0.1 0.1
0.0 0.0 0.0 0.1 0.0 0.0 0.0 0.0 0.0 0.0 0.2 0.1 0.1 0.0 0.0 0.0 0.0 0.1 0.1 0.1 0.2 2.0 0.3 0.6 14.1 4.9 9.6 7.6 1.3 0.0 0.3 0.3 0.5 0.8 0.6 0.0 0.0 0.0
0.0 0.0 0.0 0.0 0.1 0.0 0.0 0.0 0.0 0.0 0.1 0.4 0.3 0.1 0.0 0.0 0.0 0.2 0.1 0.7 0.6 0.0 0.0 0.1 3.3 4.7 9.6 11.8 5.6 1.2 0.9 0.3 0.8 0.9 1.1 1.6 1.5 0.4
0.0 0.0 0.2 0.1 0.0 0.0 0.0 0.0 0.0 0.0 0.1 0.8 0.7 0.1 0.1 0.5 1.3 1.2 2.0 1.5 3.4 1.7 1.2 2.0 2.3 4.4 10.9 4.7 5.6 4.5 0.8 2.7 0.9 1.2 1.9 1.3 1.2 1.4
0.2 0.3 0.1 0.0 0.0 0.0 0.0 0.0 0.1 0.1 0.6 0.2 1.2 1.6 1.3 1.4 1.5 1.2 2.5 3.2 6.9 3.8 4.3 2.6 2.3 2.8 2.8 4.4 8.9 1.6 1.6 1.7 1.1 2.2 2.6 2.1 1.0 1.9
0.5 0.7 0.7 0.2 0.3 0.3 0.2 0.3 0.3 0.5 0.6 2.1 2.9 2.7 3.9 3.9 3.3 4.5 4.5 5.9 7.0 3.2 5.2 5.4 6.2 9.3 8.2 6.4 1.2 5.0 4.0 1.9 2.0 1.5 2.1 5.7 3.0 0.8
0.7 0.6 0.5 0.5 0.7 0.4 0.8 1.2 1.6 0.6 1.4 3.6 5.2 5.4 6.8 5.9 6.3 6.2 4.3 5.2 5.8 3.6 4.9 6.2 9.2 14.3 19.4 8.6 2.8 1.4 6.9 5.9 3.6 3.6 2.7 3.7 4.5 1.9
0.2 0.2 0.3 0.2 0.9 1.6 1.5 2.5 2.1 2.6 3.7 4.0 4.9 5.2 7.5 9.8 8.5 6.8 5.0 7.7 8.0 4.8 4.9 6.0 6.1 9.3 20.7 13.9 10.1 1.9 2.2 6.4 8.7 6.4 3.3 2.2 2.1 0.1
0.2 0.4 0.3 0.9 1.6 2.3 3.0 4.3 4.3 5.1 5.4 7.3 5.9 5.6 5.7 10.7 9.2 4.8 6.3 3.3 6.2 6.9 8.4 3.5 1.7 1.9 7.9 14.5 18.5 6.8 5.1 2.9 2.5 9.8 7.9 8.0 3.7 2.8
0.5 0.7 0.7 1.6 2.0 3.6 4.5 5.2 5.6 4.2 4.8 4.4 4.0 4.7 5.6 8.9 10.9 8.2 6.6 9.0 5.3 3.8 4.4 2.9 4.2 5.7 8.6 14.1 10.5 4.7 3.9 3.0 3.2 1.3 1.2 6.4 16.1 16.6
1.6 2.0 1.5 2.6 3.0 4.8 5.4 6.1 5.0 3.7 3.4 5.0 5.0 5.0 6.5 10.4 5.5 6.6 7.0 6.7 6.7 8.1 5.6 6.5 5.1 4.6 6.5 7.5 8.5 7.7 5.2 4.0 3.1 3.6 3.6 1.3 1.3 0.8

GFSNE_prec_kuchsnow_186.txt.gz
Snowfall_Accumulation
0.0 0.0 0.0 0.0 0.0 0.0 0.0 0.0 0.0 0.0 0.0 0.0 0.0 0.0 0.0 0.0 0.0 0.0 0.0 0.0 0.0 0.0 0.0 0.0 0.0 0.0 0.0 0.0 0.0 0.0 0.0 0.0 0.0 0.0 0.0 0.0 0.0 0.0
0.0 0.0 0.0 0.0 0.0 0.0 0.0 0.0 0.0 0.0 0.0 0.0 0.0 0.0 0.0 0.0 0.0 0.0 0.0 0.0 0.0 0.0 0.0 0.0 0.0 0.0 0.0 0.0 0.0 0.0 0.0 0.0 0.0 0.0 0.0 0.0 0.0 0.0
0.0 0.0 0.0 0.0 0.0 0.0 0.0 0.0 0.0 0.0 0.0 0.1 0.0 0.0 0.0 0.0 0.0 0.0 0.0 0.0 0.0 0.0 0.0 0.0 0.0 0.0 0.0 0.0 0.0 0.0 0.0 0.0 0.0 0.0 0.0 0.0 0.0 0.0
0.0 0.0 0.0 0.0 0.0 0.0 0.0 0.0 0.0 0.0 0.0 0.1 0.0 0.3 0.4 0.1 0.2 0.0 0.0 0.0 0.0 0.0 0.0 0.0 0.0 0.0 0.0 0.0 0.0 0.0 0.0 0.0 0.0 0.0 0.0 0.0 0.0 0.0
0.0 0.0 0.0 0.0 0.0 0.0 0.1 0.0 0.4 0.3 0.2 0.1 0.3 0.8 1.3 0.9 2.0 1.6 1.1 0.0 0.0 0.0 0.0 0.0 0.0 0.0 0.0 0.0 0.0 0.0 0.0 0.0 0.0 0.0 0.0 0.0 0.0 0.0
0.0 0.0 0.0 0.3 0.4 0.0 0.9 1.0 0.7 1.0 0.5 0.7 0.3 1.0 0.8 0.5 0.3 0.4 0.4 0.2 0.0 0.0 0.0 0.0 0.0 0.0 0.0 0.0 0.0 0.0 0.0 0.0 0.0 0.0 0.0 0.0 0.0 0.0
0.0 0.2 0.1 0.0 0.8 1.9 1.5 1.0 1.1 0.8 0.9 1.0 0.9 0.3 0.3 0.3 0.3 0.2 0.1 0.0 0.0 0.0 0.0 0.0 0.0 0.0 0.0 0.0 0.0 0.0 0.0 0.0 0.0 0.0 0.0 0.0 0.0 0.0
0.0 1.3 1.2 1.7 0.6 0.0 0.0 0.0 0.0 0.8 1.1 0.9 0.4 0.0 0.0 0.0 0.0 0.0 0.2 0.4 1.0 0.0 0.1 0.0 0.0 0.1 0.0 0.0 0.0 0.0 0.0 0.0 0.0 0.0 0.0 0.0 0.0 0.0
1.7 1.5 0.4 0.5 0.4 0.5 0.1 0.0 0.2 0.0 0.0 0.1 0.0 0.0 0.0 0.0 0.4 0.5 0.9 1.6 0.3 0.0 0.1 0.2 0.0 0.0 0.0 0.0 0.0 0.0 0.0 0.0 0.0 0.0 0.0 0.0 0.0 0.0
1.1 0.7 0.3 0.0 0.0 0.1 0.1 0.4 0.0 0.0 0.0 0.0 0.0 0.0 0.1 0.1 0.3 0.5 1.0 0.9 0.2 0.0 0.0 0.6 0.0 0.0 0.0 0.0 0.0 0.0 0.0 0.0 0.0 0.0 0.0 0.0 0.0 0.0
0.3 0.0 0.0 0.0 0.0 0.0 0.1 0.1 0.0 0.0 0.0 0.0 0.0 0.0 0.0 0.0 0.0 0.2 0.9 1.5 0.9 0.0 0.0 0.2 0.0 0.0 0.0 0.0 0.0 0.0 0.0 0.0 0.0 0.0 0.0 0.0 0.0 0.0
0.1 0.0 0.0 0.0 0.0 0.0 0.1 0.1 0.4 0.0 0.2 0.1 0.0 0.0 0.0 0.0 0.0 0.0 0.2 3.5 2.4 2.1 0.0 2.0 0.2 0.7 3.8 0.0 0.0 0.0 0.0 0.0 0.0 0.0 0.0 0.0 0.0 0.0
0.0 0.0 0.0 0.0 0.0 0.0 0.0 0.1 0.3 0.1 0.1 0.1 0.0 0.0 0.0 0.0 0.0 0.0 0.0 1.7 6.5 5.0 0.0 4.7 7.3 1.2 6.6 1.8 0.0 0.0 0.0 0.0 0.0 0.0 0.0 0.0 0.1 0.1
0.0 0.0 0.0 0.1 0.0 0.0 0.0 0.0 0.0 0.0 0.2 0.1 0.1 0.0 0.0 0.0 0.0 0.1 0.1 0.1 0.2 2.0 0.3 0.6 14.3 4.9 9.9 7.7 1.3 0.0 0.3 0.3 0.5 0.8 0.6 0.0 0.0 0.0
0.0 0.0 0.0 0.0 0.1 0.0 0.0 0.0 0.0 0.0 0.1 0.4 0.3 0.1 0.0 0.0 0.0 0.2 0.1 0.7 0.6 0.0 0.0 0.1 3.3 4.7 9.6 11.9 5.7 1.2 1.0 0.3 0.8 0.9 1.1 1.6 1.5 0.4
0.0 0.0 0.2 0.1 0.0 0.0 0.0 0.0 0.0 0.0 0.1 0.8 0.7 0.1 0.1 0.5 1.3 1.2 2.0 1.5 3.4 1.7 1.2 2.0 2.3 4.4 10.9 4.7 5.6 4.5 0.8 2.7 0.9 1.2 1.9 1.3 1.2 1.4
0.2 0.3 0.1 0.0 0.0 0.0 0.0 0.0 0.1 0.1 0.6 0.2 1.2 1.6 1.3 1.4 1.5 1.2 2.5 3.3 6.9 3.8 4.3 2.6 2.3 2.8 2.8 4.4 8.9 1.6 1.6 1.7 1.1 2.2 2.6 2.1 1.0 1.9
0.5 0.7 0.7 0.2 0.3 0.3 0.2 0.3 0.3 0.5 0.6 2.1 2.9 2.7 3.9 3.9 3.3 4.5 4.5 5.9 7.1 3.2 5.2 5.4 6.2 9.4 8.2 6.4 1.2 5.0 4.0 1.9 2.0 1.5 2.1 5.7 3.0 0.8
0.7 0.6 0.5 0.5 0.7 0.4 0.8 1.2 1.6 0.6 1.4 3.6 5.2 5.4 6.8 6.1 6.3 6.2 4.3 5.2 5.8 3.6 4.9 6.2 9.2 14.4 19.5 8.7 2.8 1.4 6.9 5.9 3.6 3.6 2.7 3.7 4.5 1.9
0.2 0.2 0.3 0.2 0.9 1.6 1.5 2.5 2.1 2.6 3.7 4.1 4.9 5.2 7.7 10.0 8.5 6.8 5.0 7.8 8.0 4.8 4.9 6.0 6.1 9.3 20.9 14.1 10.5 1.9 2.2 6.4 8.7 6.4 3.3 2.2 2.1 0.1
0.2 0.4 0.3 0.9 1.6 2.3 3.0 4.3 4.3 5.1 5.4 7.3 5.9 5.6 5.7 10.8 9.3 4.8 6.4 3.3 6.3 6.9 8.5 3.5 1.7 1.9 7.9 14.7 18.7 6.8 5.1 2.9 2.5 9.8 7.9 8.0 3.7 2.8
0.5 0.7 0.7 1.6 2.0 3.6 4.5 5.2 5.6 4.2 4.8 4.4 4.0 4.7 5.6 8.9 11.0 8.3 6.7 9.1 5.3 3.9 4.4 2.9 4.2 5.7 8.7 14.2 10.6 4.7 3.9 3.0 3.2 1.3 1.2 6.4 16.3 16.8
1.6 2.0 1.5 2.6 3.0 4.8 5.4 6.1 5.0 3.7 3.4 5.0 5.0 5.0 6.5 10.4 5.5 6.7 7.0 6.7 6.7 8.3 5.6 6.5 5.1 4.6 6.5 7.5 8.5 7.7 5.2 4.0 3.1 3.6 3.6 1.3 1.3 0.8

GFSNE_prec_kuchsnow_189.txt.gz
Snowfall_Accumulation
0.0 0.0 0.0 0.0 0.0 0.0 0.0 0.0 0.0 0.0 0.0 0.0 0.0 0.0 0.0 0.0 0.0 0.0 0.0 0.0 0.0 0.0 0.0 0.0 0.0 0.0 0.0 0.0 0.0 0.0 0.0 0.0 0.0 0.0 0.0 0.0 0.0 0.0
0.0 0.0 0.0 0.0 0.0 0.0 0.0 0.0 0.0 0.0 0.0 0.0 0.0 0.0 0.0 0.0 0.0 0.0 0.0 0.0 0.0 0.0 0.0 0.0 0.0 0.0 0.0 0.0 0.0 0.0 0.0 0.0 0.0 0.0 0.0 0.0 0.0 0.0
0.0 0.0 0.0 0.0 0.0 0.0 0.0 0.0 0.0 0.0 0.0 0.1 0.0 0.0 0.0 0.0 0.0 0.0 0.0 0.0 0.0 0.0 0.0 0.0 0.0 0.0 0.0 0.0 0.0 0.0 0.0 0.0 0.0 0.0 0.0 0.0 0.0 0.0
0.0 0.0 0.0 0.0 0.0 0.0 0.0 0.0 0.0 0.0 0.0 0.1 0.0 0.3 0.4 0.1 0.2 0.0 0.0 0.0 0.0 0.0 0.0 0.0 0.0 0.0 0.0 0.0 0.0 0.0 0.0 0.0 0.0 0.0 0.0 0.0 0.0 0.0
0.0 0.0 0.0 0.0 0.0 0.0 0.1 0.0 0.4 0.3 0.2 0.1 0.3 0.8 1.3 0.9 2.0 1.6 1.1 0.0 0.0 0.0 0.0 0.0 0.0 0.0 0.0 0.0 0.0 0.0 0.0 0.0 0.0 0.0 0.0 0.0 0.0 0.0
0.0 0.0 0.0 0.3 0.4 0.0 0.9 1.0 0.7 1.0 0.5 0.7 0.3 1.0 0.8 0.5 0.3 0.4 0.4 0.2 0.0 0.0 0.0 0.0 0.0 0.0 0.0 0.0 0.0 0.0 0.0 0.0 0.0 0.0 0.0 0.0 0.0 0.0
0.0 0.2 0.1 0.0 0.8 1.9 1.5 1.0 1.1 0.8 0.9 1.0 0.9 0.3 0.3 0.3 0.3 0.2 0.1 0.0 0.0 0.0 0.0 0.0 0.0 0.0 0.0 0.0 0.0 0.0 0.0 0.0 0.0 0.0 0.0 0.0 0.0 0.0
0.0 1.3 1.2 1.7 0.6 0.0 0.0 0.0 0.0 0.8 1.1 0.9 0.4 0.0 0.0 0.0 0.0 0.0 0.2 0.4 1.0 0.0 0.1 0.0 0.0 0.1 0.0 0.0 0.0 0.0 0.0 0.0 0.0 0.0 0.0 0.0 0.0 0.0
1.7 1.5 0.4 0.5 0.4 0.5 0.1 0.0 0.2 0.0 0.0 0.1 0.0 0.0 0.0 0.0 0.4 0.5 0.9 1.6 0.3 0.0 0.1 0.2 0.0 0.0 0.0 0.0 0.0 0.0 0.0 0.0 0.0 0.0 0.0 0.0 0.0 0.0
1.1 0.7 0.3 0.0 0.0 0.1 0.1 0.4 0.0 0.0 0.0 0.0 0.0 0.0 0.1 0.1 0.3 0.5 1.0 0.9 0.2 0.0 0.0 0.6 0.0 0.0 0.0 0.0 0.0 0.0 0.0 0.0 0.0 0.0 0.0 0.0 0.0 0.0
0.3 0.0 0.0 0.0 0.0 0.0 0.1 0.1 0.0 0.0 0.0 0.0 0.0 0.0 0.0 0.0 0.0 0.2 0.9 1.5 0.9 0.0 0.0 0.2 0.0 0.0 0.0 0.0 0.0 0.0 0.0 0.0 0.0 0.0 0.0 0.0 0.0 0.0
0.1 0.0 0.0 0.0 0.0 0.0 0.1 0.1 0.4 0.0 0.2 0.1 0.0 0.0 0.0 0.0 0.0 0.0 0.2 3.5 2.4 2.1 0.0 2.0 0.2 0.7 3.8 0.0 0.0 0.0 0.0 0.0 0.0 0.0 0.0 0.0 0.0 0.0
0.0 0.0 0.0 0.0 0.0 0.0 0.0 0.1 0.3 0.1 0.1 0.1 0.0 0.0 0.0 0.0 0.0 0.0 0.0 1.7 6.5 5.2 0.0 4.9 7.5 1.2 6.6 1.8 0.0 0.0 0.0 0.0 0.0 0.0 0.0 0.0 0.1 0.1
0.0 0.0 0.0 0.1 0.0 0.0 0.0 0.0 0.0 0.0 0.2 0.1 0.1 0.0 0.0 0.0 0.0 0.1 0.1 0.1 0.2 2.0 0.3 0.6 14.5 5.0 10.1 7.9 1.3 0.0 0.3 0.3 0.5 0.8 0.6 0.0 0.0 0.0
0.0 0.0 0.0 0.0 0.1 0.0 0.0 0.0 0.0 0.0 0.1 0.4 0.3 0.1 0.0 0.0 0.0 0.2 0.1 0.7 0.6 0.0 0.0 0.1 3.3 4.7 9.7 12.1 5.7 1.2 1.0 0.3 0.8 0.9 1.1 1.6 1.5 0.4
0.0 0.0 0.2 0.1 0.0 0.0 0.0 0.0 0.0 0.0 0.1 0.8 0.7 0.1 0.1 0.5 1.3 1.2 2.0 1.5 3.4 1.7 1.2 2.0 2.3 4.4 11.0 4.8 5.6 4.5 0.8 2.7 0.9 1.2 1.9 1.3 1.2 1.4
0.2 0.3 0.1 0.0 0.0 0.0 0.0 0.0 0.1 0.1 0.6 0.2 1.2 1.6 1.3 1.4 1.5 1.2 2.5 3.3 6.9 3.8 4.3 2.6 2.3 2.8 2.8 4.4 8.9 1.6 1.6 1.7 1.1 2.2 2.6 2.1 1.0 1.9
0.5 0.7 0.7 0.2 0.3 0.3 0.2 0.3 0.3 0.5 0.6 2.1 2.9 2.7 3.9 3.9 3.4 4.5 4.5 5.9 7.1 3.2 5.2 5.4 6.2 9.4 8.2 6.4 1.2 5.0 4.0 1.9 2.0 1.5 2.1 5.7 3.0 0.8
0.7 0.6 0.5 0.5 0.7 0.4 0.8 1.2 1.6 0.6 1.4 3.6 5.2 5.4 6.8 6.1 6.3 6.2 4.3 5.2 5.8 3.6 4.9 6.2 9.2 14.5 19.8 8.8 2.8 1.4 6.9 5.9 3.6 3.6 2.7 3.7 4.5 1.9
0.2 0.2 0.3 0.2 0.9 1.6 1.5 2.5 2.1 2.6 3.7 4.1 4.9 5.2 7.7 10.0 8.5 6.8 5.0 7.9 8.0 4.8 4.9 6.0 6.1 9.3 21.1 14.3 10.9 1.9 2.2 6.4 8.7 6.4 3.3 2.2 2.1 0.1
0.2 0.4 0.3 0.9 1.6 2.3 3.0 4.3 4.3 5.1 5.4 7.3 5.9 5.6 5.7 10.9 9.3 4.8 6.4 3.3 6.4 6.9 8.6 3.5 1.7 1.9 7.9 15.0 19.0 6.8 5.1 2.9 2.5 9.8 7.9 8.2 3.8 2.8
0.5 0.7 0.7 1.6 2.0 3.6 4.5 5.2 5.6 4.2 4.8 4.4 4.0 4.7 5.6 8.9 11.1 8.3 6.7 9.2 5.3 3.9 4.5 2.9 4.2 5.7 8.7 14.3 10.7 4.7 3.9 3.0 3.2 1.3 1.2 6.4 16.4 17.1
1.6 2.0 1.5 2.6 3.0 4.8 5.4 6.1 5.0 3.7 3.4 5.0 5.0 5.0 6.5 10.5 5.5 6.7 7.1 6.7 6.8 8.4 5.6 6.6 5.1 4.6 6.5 7.5 8.5 7.7 5.2 4.0 3.1 3.6 3.6 1.3 1.3 0.8

GFSNE_prec_kuchsnow_195.txt.gz
Snowfall_Accumulation
0.0 0.0 0.0 0.0 0.0 0.0 0.0 0.0 0.0 0.0 0.0 0.0 0.0 0.0 0.0 0.0 0.0 0.0 0.0 0.0 0.0 0.0 0.0 0.0 0.0 0.0 0.0 0.0 0.0 0.0 0.0 0.0 0.0 0.0 0.0 0.0 0.0 0.0
0.0 0.0 0.0 0.0 0.0 0.0 0.0 0.0 0.0 0.0 0.0 0.0 0.0 0.0 0.0 0.0 0.0 0.0 0.0 0.0 0.0 0.0 0.0 0.0 0.0 0.0 0.0 0.0 0.0 0.0 0.0 0.0 0.0 0.0 0.0 0.0 0.0 0.0
0.0 0.0 0.0 0.0 0.0 0.0 0.0 0.0 0.0 0.0 0.0 0.1 0.0 0.0 0.0 0.0 0.0 0.0 0.0 0.0 0.0 0.0 0.0 0.0 0.0 0.0 0.0 0.0 0.0 0.0 0.0 0.0 0.0 0.0 0.0 0.0 0.0 0.0
0.0 0.0 0.0 0.0 0.0 0.0 0.0 0.0 0.0 0.0 0.0 0.1 0.0 0.3 0.4 0.1 0.2 0.0 0.0 0.0 0.0 0.0 0.0 0.0 0.0 0.0 0.0 0.0 0.0 0.0 0.0 0.0 0.0 0.0 0.0 0.0 0.0 0.0
0.0 0.0 0.0 0.0 0.0 0.0 0.1 0.0 0.4 0.3 0.2 0.1 0.3 0.8 1.3 0.9 2.0 1.6 1.1 0.0 0.0 0.0 0.0 0.0 0.0 0.0 0.0 0.0 0.0 0.0 0.0 0.0 0.0 0.0 0.0 0.0 0.0 0.0
0.0 0.0 0.0 0.3 0.4 0.0 0.9 1.0 0.7 1.0 0.5 0.7 0.3 1.0 0.8 0.5 0.3 0.4 0.4 0.2 0.0 0.0 0.0 0.0 0.0 0.0 0.0 0.0 0.0 0.0 0.0 0.0 0.0 0.0 0.0 0.0 0.0 0.0
0.0 0.2 0.1 0.0 0.8 1.9 1.5 1.0 1.1 0.8 0.9 1.0 0.9 0.3 0.3 0.3 0.3 0.2 0.1 0.0 0.0 0.0 0.0 0.0 0.0 0.0 0.0 0.0 0.0 0.0 0.0 0.0 0.0 0.0 0.0 0.0 0.0 0.0
0.0 1.3 1.2 1.7 0.6 0.0 0.0 0.0 0.0 0.8 1.1 0.9 0.4 0.0 0.0 0.0 0.0 0.0 0.2 0.4 1.0 0.0 0.1 0.0 0.0 0.1 0.0 0.0 0.0 0.0 0.0 0.0 0.0 0.0 0.0 0.0 0.0 0.0
1.7 1.5 0.4 0.5 0.4 0.5 0.1 0.0 0.2 0.0 0.0 0.1 0.0 0.0 0.0 0.0 0.4 0.5 0.9 1.6 0.3 0.0 0.1 0.2 0.0 0.0 0.0 0.0 0.0 0.0 0.0 0.0 0.0 0.0 0.0 0.0 0.0 0.0
1.1 0.7 0.3 0.0 0.0 0.1 0.1 0.4 0.0 0.0 0.0 0.0 0.0 0.0 0.1 0.1 0.3 0.5 1.0 0.9 0.2 0.0 0.0 0.6 0.0 0.0 0.0 0.0 0.0 0.0 0.0 0.0 0.0 0.0 0.0 0.0 0.0 0.0
0.3 0.0 0.0 0.0 0.0 0.0 0.1 0.1 0.0 0.0 0.0 0.0 0.0 0.0 0.0 0.0 0.0 0.2 0.9 1.5 0.9 0.0 0.0 0.2 0.0 0.0 0.0 0.0 0.0 0.0 0.0 0.0 0.0 0.0 0.0 0.0 0.0 0.0
0.1 0.0 0.0 0.0 0.0 0.0 0.1 0.1 0.4 0.0 0.2 0.1 0.0 0.0 0.0 0.0 0.0 0.0 0.2 3.5 2.4 2.1 0.0 2.1 0.2 0.7 3.8 0.0 0.0 0.0 0.0 0.0 0.0 0.0 0.0 0.0 0.0 0.0
0.0 0.0 0.0 0.0 0.0 0.0 0.0 0.1 0.3 0.1 0.1 0.1 0.0 0.0 0.0 0.0 0.0 0.0 0.0 1.7 6.5 5.2 0.0 5.0 7.9 1.3 6.8 1.8 0.0 0.0 0.0 0.0 0.0 0.0 0.0 0.0 0.1 0.1
0.0 0.0 0.0 0.1 0.0 0.0 0.0 0.0 0.0 0.0 0.2 0.1 0.1 0.0 0.0 0.0 0.0 0.1 0.1 0.1 0.2 2.0 0.3 0.6 14.8 5.3 10.7 8.3 1.3 0.0 0.3 0.3 0.5 0.8 0.6 0.0 0.0 0.0
0.0 0.0 0.0 0.0 0.1 0.0 0.0 0.0 0.0 0.0 0.1 0.4 0.3 0.1 0.0 0.0 0.0 0.2 0.1 0.7 0.6 0.0 0.0 0.1 3.3 4.7 9.9 12.5 6.0 1.2 1.0 0.3 0.8 0.9 1.1 1.6 1.5 0.4
0.0 0.0 0.2 0.1 0.0 0.0 0.0 0.0 0.0 0.0 0.1 0.8 0.7 0.1 0.1 0.5 1.3 1.2 2.0 1.5 3.4 1.7 1.2 2.0 2.3 4.4 11.0 4.8 5.8 4.7 0.8 2.7 0.9 1.2 1.9 1.3 1.2 1.4
0.2 0.3 0.1 0.0 0.0 0.0 0.0 0.0 0.1 0.1 0.6 0.2 1.2 1.6 1.3 1.4 1.5 1.2 2.5 3.3 7.0 3.8 4.3 2.6 2.3 2.8 2.8 4.4 9.0 1.6 1.6 1.7 1.1 2.2 2.6 2.1 1.0 1.9
0.5 0.7 0.7 0.2 0.3 0.3 0.2 0.3 0.3 0.5 0.6 2.1 2.9 2.7 4.0 3.9 3.4 4.5 4.5 5.9 7.2 3.2 5.2 5.4 6.2 9.4 8.2 6.4 1.2 5.0 4.0 1.9 2.0 1.5 2.1 5.7 3.0 0.8
0.7 0.6 0.5 0.5 0.7 0.4 0.8 1.2 1.6 0.6 1.4 3.6 5.2 5.4 6.8 6.1 6.3 6.2 4.3 5.2 5.8 3.6 4.9 6.2 9.2 14.8 20.3 8.8 2.8 1.4 6.9 5.9 3.6 3.6 2.7 3.7 4.5 1.9
0.2 0.2 0.3 0.2 0.9 1.6 1.5 2.5 2.1 2.6 3.7 4.1 4.9 5.2 7.7 10.1 8.5 6.8 5.0 7.9 8.0 4.8 5.0 6.0 6.1 9.3 21.5 14.8 11.6 1.9 2.2 6.4 8.7 6.4 3.3 2.2 2.1 0.1
0.2 0.4 0.3 0.9 1.6 2.3 3.0 4.3 4.3 5.1 5.4 7.3 5.9 5.6 5.7 10.9 9.4 4.8 6.4 3.3 6.4 6.9 8.7 3.5 1.7 1.9 7.9 15.6 19.4 6.8 5.1 2.9 2.5 9.8 8.0 8.8 4.0 2.8
0.5 0.7 0.7 1.6 2.0 3.6 4.5 5.2 5.6 4.2 4.8 4.4 4.0 4.7 5.6 9.0 11.2 8.3 6.7 9.4 5.3 3.9 4.5 2.9 4.2 5.7 8.7 14.6 10.9 4.7 3.9 3.0 3.2 1.3 1.2 6.4 16.9 17.9
1.6 2.0 1.5 2.6 3.0 4.8 5.4 6.1 5.0 3.7 3.4 5.0 5.0 5.0 6.5 10.6 5.5 6.7 7.2 6.8 6.8 8.5 5.6 6.7 5.1 4.6 6.5 7.5 8.5 7.7 5.2 4.0 3.1 3.6 3.6 1.3 1.3 0.8